Beaufort, NC

8:50 AM EDT on May 27, 2018 (GMT -0400)
Smith

Weather History for KMRH - November, 2013

Change the Weather History Date:

Monday, November 4, 2013

  Actual Average Record
Temperature  
Mean Temperature 54 °F -  
Max Temperature 57 °F 72 °F 81 °F (1974)
Min Temperature 50 °F 50 °F 28 °F (1966)
Degree Days  
Heating Degree Days 12    
Growing Degree Days 4 (Base 50)    
Moisture  
Dew Point 41 °F    
Average Humidity 64    
Maximum Humidity 89    
Minimum Humidity 49    
Precipitation  
Precipitation 0.00 in - - ()
Sea Level Pressure  
Sea Level Pressure 30.43 in    
Wind  
Wind Speed 11 mph (NNE)    
Max Wind Speed 18 mph    
Max Gust Speed 30 mph    
Visibility 10 miles    
Events      
Averages and records for this station are not official NWS values.
T = Trace of Precipitation, MM = Missing Value Source: NWS Daily Summary

Daily Weather History Graph

Daily Weather History Graph

Search for Another Location

Airport or City:

Astronomy

Nov. 04, 2013 Rise Set
Actual Time 6:30 AM EST 5:09 PM EST
Civil Twilight 6:03 AM EST 5:35 PM EST
Nautical Twilight 5:34 AM EST 6:05 PM EST
Astronomical Twilight 5:04 AM EST 6:35 PM EST
Moon 7:36 AM EST (11/4) 6:15 PM EST (11/4)
Length of Visible Light 11h 32m
Length of Day
10h 39m
New Moon, 2% of the Moon is Illuminated
Nov 4
New Moon
Nov 10
First Quarter
Nov 17
Full
Nov 25
Last Quarter
Dec 2
New

Hourly Weather History & Observations

Time (EST) Temp. Dew Point Humidity Pressure Visibility Wind Dir Wind Speed Gust Speed Precip Events Conditions
12:58 AM 51.1 °F 39.0 °F 63% 30.33 in 10.0 mi NNE 10.4 mph - N/A   Clear
1:58 AM 51.1 °F 37.0 °F 59% 30.34 in 10.0 mi NNE 8.1 mph - N/A   Clear
2:58 AM 51.1 °F 36.0 °F 56% 30.35 in 10.0 mi NNE 8.1 mph - N/A   Clear
3:58 AM 51.1 °F 36.0 °F 56% 30.37 in 10.0 mi NNE 9.2 mph - N/A   Clear
4:58 AM 50.0 °F 37.0 °F 61% 30.40 in 10.0 mi NNE 9.2 mph - N/A   Clear
5:58 AM 51.1 °F 37.0 °F 59% 30.40 in 10.0 mi NNE 10.4 mph - N/A   Clear
6:58 AM 51.1 °F 39.0 °F 63% 30.43 in 10.0 mi NNE 10.4 mph - N/A   Clear
7:58 AM 55.0 °F 39.9 °F 57% 30.42 in 10.0 mi NNE 12.7 mph 20.7 mph N/A   Clear
8:58 AM 57.0 °F 41.0 °F 55% 30.43 in 10.0 mi NNE 18.4 mph 23.0 mph N/A   Clear
9:58 AM 57.9 °F 42.1 °F 56% 30.46 in 10.0 mi NNE 17.3 mph 26.5 mph N/A   Scattered Clouds
10:58 AM 57.0 °F 41.0 °F 55% 30.48 in 10.0 mi NNE 17.3 mph 29.9 mph N/A   Mostly Cloudy
11:58 AM 57.9 °F 39.9 °F 51% 30.47 in 10.0 mi NE 13.8 mph 19.6 mph N/A   Scattered Clouds
12:58 PM 57.9 °F 39.0 °F 49% 30.45 in 10.0 mi NE 12.7 mph 25.3 mph N/A   Clear
1:58 PM 57.9 °F 39.0 °F 49% 30.45 in 10.0 mi NNE 16.1 mph 23.0 mph N/A   Partly Cloudy
2:58 PM 57.9 °F 39.9 °F 51% 30.45 in 10.0 mi NE 11.5 mph 23.0 mph N/A   Clear
3:58 PM 57.0 °F 42.1 °F 57% 30.45 in 10.0 mi NNE 17.3 mph 21.9 mph N/A   Scattered Clouds
4:58 PM 54.0 °F 43.0 °F 66% 30.46 in 10.0 mi NNE 11.5 mph - N/A   Scattered Clouds
5:58 PM 52.0 °F 44.1 °F 74% 30.46 in 10.0 mi North 9.2 mph - N/A   Clear
6:58 PM 51.1 °F 44.1 °F 77% 30.47 in 10.0 mi North 8.1 mph - N/A   Clear
7:58 PM 50.0 °F 45.0 °F 83% 30.46 in 10.0 mi North 6.9 mph - N/A   Clear
8:58 PM 51.1 °F 46.9 °F 86% 30.47 in 10.0 mi NNE 10.4 mph - N/A   Clear
9:58 PM 51.1 °F 48.0 °F 89% 30.46 in 10.0 mi NNE 11.5 mph - N/A   Partly Cloudy
10:58 PM 53.1 °F 48.9 °F 86% 30.44 in 10.0 mi NNE 16.1 mph 23.0 mph N/A   Overcast
11:58 PM 53.1 °F 48.9 °F 86% 30.44 in 10.0 mi North 12.7 mph - N/A   Partly Cloudy